Погода Ханты-Мансийск

Хотите узнать прогноз погоды Ханты-Мансийск? Тогда Вам сюда: Погода Ханты-Мансийск

Поиск расширенной информации на нашем сайте:

Полезная информация:

Новости сайта



02.01.2020
Опубликован Долгосрочный прогноз погоды по городам России и ближнего зарубежья на январь 2020 года.
Карты: Прогноз на январь и февраль 2020 года, Сравнение прогнозируемой аномалии приземной температуры воздуха на январь 2020 года по разным моделям.




Погода Ханты-Мансийск - сегодня

Время (UTC), дата Ветер
(°,м/с) 
Видим.   Явления Облачность Т
(°С)
Тd
(°С)
f(%) Тe
(°С)
Pmin
(гПа)
dP
(гПа)
Po
(мм)
O2
(г/м3)
Тmin Tmax R s Состояние
почвы
21 27.11.20 080 (В) 10 км  слаб. снег  10/0 средняя 
[As op]
-15.5 -17.4 85 -16  1038.5  0.6  774  332           
00 28.11.20 тихо ()   10 км  слаб. снег  10/0 средняя 
[Ac As]
-16.5 -18.5 84 -17  1039  0.5  775  334           
03 28.11.20 тихо ()   10 км  слаб. снег [диам. изморози 0.5 мм]  10/0 средняя 
[Ac As]
-12.9 -14.6 87 -13  1039.8  0.8  775  329  -17.7    0.2  10  равномерный
сухой снег
100% 
12 28.11.20 310 (СЗ) 10 км  ледяные иглы{снег}  8/0 средняя, верхняя 
[As op|Cs]
-13.5 -15.1 88 -13  1042.4  777  331           
15 28.11.20 050 (СВ) 10 км  ледяные иглы{снег} [диам. изморози 1 мм]  8/4 600 м средняя, верхняя 
[Sc|Ac trans|Cs]
-13.6 -15.3 87 -14  1043.2  0.8  778  331    -10.8  0.3     
03 29.11.20 290 (З) 10 км  слаб. снег [диам. изморози 2 мм]  10/9 600 м средняя 
[Sc|As trans]
-18.2 -20.4 83 -18  1046.4  0.5  780  338  -18.3    0.2  11  равномерный
сухой снег
100% 
15 29.11.20 270 (З) 10 км  слаб. снег [диам. изморози 2 мм]  10/0 средняя 
[As trans]
-18.5 -20.8 82 -19  1048.5  0.1  782  340    -17.3  0.2     
00 30.11.20 230 (ЮЗ) 10 км  {снег} [диам. изморози 3 мм]  ясно 
-18.9 -21.2 82 -19  1048.1  -0.2  781  340           
03 30.11.20 тихо ()   10 км  [диам. изморози 3 мм]  3/0 верхняя 
[Cs]
-18 -20.2 83 -18  1048.2  782  339  -20    0.0  11  равномерный
сухой снег
100% 
06 30.11.20 220 (ЮЗ) 10 км  [диам. изморози 3 мм]  10/0 средняя, верхняя 
[As op|Cs]
-16.5 -18.6 84 -17  1048.4  0.2  782  337           
09 30.11.20 250 (З) 10 км  [диам. изморози 3 мм]  10/0 средняя, верхняя 
[Ac As|Cs]
-14.1 -15.9 86 -14  1048.1  -0.2  782  333           
12 30.11.20 230 (ЮЗ) 10 км  [диам. изморози 3 мм]  10/0 средняя 
[Ac As]
-13 -14.8 86 -13  1047.8  -0.2  781  332           
15 30.11.20 220 (ЮЗ) 10 км  [диам. изморози 3 мм]  10/0 средняя, верхняя 
[Ac As|Cs]
-13 -14.9 86 -15  1047.5  -0.4  781  332    -12.6       
18 30.11.20 240 (ЮЗ) 10 км  [диам. изморози 3 мм]  10/0 средняя, верхняя 
[As trans|Cs]
-13.9 -16 84 -16  1047.3  0.1  781  333           
21 30.11.20 220 (ЮЗ) 10 км  [диам. изморози 3 мм]  10/0 верхняя 
[Cs]
-13.8 -15.9 84 -14  1047  -0.3  781  333           
00 01.12.20 260 (З) 10 км  [диам. изморози 3 мм]  10/0 верхняя 
[Cs]
-12.5 -14.7 84 -12  1046.5  -0.4  780  331           
03 01.12.20 170 (Ю) 10 км  [диам. изморози 2 мм]  10/0 верхняя 
[Cs]
-15.3 -17.4 84 -15  1046.5  0.1  780  335  -15.3      11  равномерный
сухой снег
100% 
09 01.12.20 170 (Ю) 10 км  [диам. изморози 0 мм]  10/0 верхняя 
[Cs]
-15 -17.3 83 -15  1046.2  -0.7  780  334           
12 01.12.20 180 (Ю) 10 км  ледяные иглы{снег}  4/0 верхняя 
[Ci fib]
-16.9 -19 84 -19  1045.8  -0.5  780  336           
15 01.12.20 170 (Ю) 10 км  {снег} [диам. изморози 1 мм]  ясно 
-18.3 -20.6 82 -21  1044.8  -1  779  338    -12.3  0.0     
03 02.12.20 180 (Ю) 10 км  ледяные иглы{снег} [диам. изморози 2 мм]  8/0 средняя, верхняя 
[As op|Cs]
-16.8 -18.9 84 -19  1041  -0.9  776  335  -18.6    0.2     
12 02.12.20 180 (Ю) 10 км  {снег} [диам. изморози 2 мм]  ясно 
-15.8 -17.8 85 -18  1037.5  -0.9  774  332           
18 02.12.20 180 (Ю) 10 км  [диам. изморози 2 мм]  3/3 600 м 
[Sc]
-16.9 -19 84 -17  1037  0.1  773  334           
21 02.12.20 170 (Ю) 10 км  ледяные иглы{снег} [диам. изморози 2 мм]  ясно 
-18.2 -20.5 82 -18  1036.5  -0.5  773  335           
03 03.12.20 170 (Ю) 10 км  {снег} [диам. изморози 3 мм]  8/0 средняя 
[As trans]
-17.3 -19.4 84 -17  1035.3  -0.9  772  334  -19    0.0  11  равномерный
сухой снег
100% 
Время (UTC), дата Ветер
(°,м/с) 
Видим.   Явления Облачность Т
(°С)
Тd
(°С)
f(%) Тe
(°С)
Pmin
(гПа)
dP
(гПа)
Po
(мм)
O2
(г/м3)
Тmin Tmax R s Состояние
почвы

Для получения пояснительной информации подведите курсор к названию столбца.

ПОГОДА Ханты-Мансийск - архив

Всё, что Вы хотите узнать о погоде Ханты-Мансийск - удобно и подробно!

Выберите нужную дату (начиная с 1 января 2019* года) и нажмите кнопку "Найти".
Будут отображены архивные сводки погоды по пункту Ханты-Мансийск, начиная с указанной даты.


Отображать данные в формате CSV (для использования в таблицах Excel)


Внимание! Наш архив погоды предназначен исключительно для личного некоммерческого использования в познавательных целях. Если Вам необходимы официальные справки о состоянии погоды (для производственных, юридических, коммерческих и т.п. целей), обращайтесь в органы Росгидромета.

*Примечание: данная дата относится к архиву по метеостанциям СССР (Россия, СНГ, Балтия).
Архив по метеостанциям Зарубежной Европы и Азии (кроме Китая) хранится 10 дней, по другим регионам земного шара (Китай, Африка, Америка, Австралия, Океания) - 1 день.

Ханты-Мансийск - район местоположения метеостанции


Название, широта, долгота, высота метеостанции:
Ханты-Мансийск 61°ш. 69°д. 46 м над ур. моря [Российская Федерация]

Дополнительная информация

В oтличие oт бoльшинства пoгoдных сайтoв мы публикуем пoдрoбную метеoинфoрмацию в детальнoм прoфессиoнальнoм фoрмате.

Характеристики температуры и влажнoсти вoздуха измеряются на высoте 2 м в тени вдали oт зданий и деревьев.
Скoрoсть ветра измеряется на высoте 10 м (на урoвне рoста челoвека скoрoсть ветра ниже в 1.5-2 раза). Если метеoстанция нахoдится в гoрoде или в лесу, тo скoрoсть ветра занижена на 2-4 м/с пo сравнению с oткрытым местoм. Скoрoсть ветра над акватoриями крупных рек и oзёр, а также на вершинах хoлмoв на 2-5 м/с выше, чем в oбычных услoвиях.
Атмoсфернoе давление в разных тoчках местнoсти мoжет значительнo oтличаться oт давления на метеoстанции, в зависимoсти oт услoвий рельефа (при пoдъёме на 10 м давление пoнижается примернo на 1 мм рт.ст.).